Hourly Data Report for October 07, 2013

All times are specified in Local Standard Time (LST). Add 1 hour to adjust for Daylight Saving Time where and when it is observed.

GJOA HAVEN A
NUNAVUT

68°38'08.000" N
95°51'01.000" W
46.90 m
2302337
71597
YHK

Download Data

Hourly Data (October 2013)
Hourly Data Report for October 7, 2013
Temp Definition
°C
Dew Point Temp Definition
°C
Rel Hum Definition
%
Wind Dir Definition
10's deg

Wind Spd Definition
km/h
Visibility Definition
km
Stn Press Definition
kPa
Hmdx Definition


Wind Chill Definition


Weather Definition


TIME
00:00 Legend Double Dagger -1.3 -2.7 90 13 24 16.1 100.83   -7 LegendNANA
01:00 Legend Double Dagger -1.5 -2.8 91 13 26 16.1 100.83   -8 LegendNANA
02:00 Legend Double Dagger -1.6 -3.2 89 12 28 16.1 100.83   -8 LegendNANA
03:00 Legend Double Dagger -1.8 -3.5 88 12 26 16.1 100.83   -8 LegendNANA
04:00 Legend Double Dagger -2.0 -3.9 87 12 28 16.1 100.85   -9 LegendNANA
05:00 Legend Double Dagger -2.0 -3.8 88 12 30 16.1 100.87   -9 LegendNANA
06:00 Legend Double Dagger -2.1 -3.8 88 12 26 16.1 100.88   -9 LegendNANA
07:00 Legend Double Dagger -2.3 -3.9 89 11 22 16.1 100.88   -8 LegendNANA
08:00 Legend Double Dagger -2.2 -3.9 88 13 24 16.1 100.89   -9 LegendNANA
09:00 Legend Double Dagger -2.2 -3.9 88 12 21 16.1 100.91   -8 LegendNANA
10:00 Legend Double Dagger -2.3 -4.2 87 13 24 16.1 100.93   -9 LegendNANA
11:00 Legend Double Dagger -2.1 -4.3 85 13 24 16.1 100.95   -8 LegendNANA
12:00 Legend Double Dagger -1.9 -4.6 82 12 24 16.1 100.97   -8 LegendNANA
13:00 Legend Double Dagger -2.0 -4.9 81 11 28 16.1 100.97   -9 LegendNANA
14:00 Legend Double Dagger -2.4 -5.2 81 12 26 16.1 101.00   -9 LegendNANA
15:00 Legend Double Dagger -2.2 -5.5 78 12 21 16.1 101.02   -8 LegendNANA
16:00 Legend Double Dagger -2.4 -6.0 76 12 22 16.1 101.05   -9 LegendNANA
17:00 Legend Double Dagger -2.7 -5.7 80 11 22 16.1 101.09   -9 LegendNANA
18:00 Legend Double Dagger -2.7 -6.2 77 11 22 16.1 101.11   -9 LegendNANA
19:00 Legend Double Dagger -2.8 -6.1 78 11 28 16.1 101.14   -10 LegendNANA
20:00 Legend Double Dagger -3.1 -6.4 78 10 22 16.1 101.17   -9 LegendNANA
21:00 Legend Double Dagger -3.4 -6.7 78 12 24 16.1 101.21   -10 LegendNANA
22:00 Legend Double Dagger -3.3 -6.8 77 10 22 16.1 101.23   -10 LegendNANA
23:00 Legend Double Dagger -3.9 -6.4 83 11 17 16.1 101.27   -10 LegendNANA

Notes on Data Quality.

Legend

  • E = Estimated
  • M = Missing
  • NA = Not Available
  • ‡ = Partner data that is not subject to review by the National Climate Archives
Date modified: